Miscellaneous Local Product
Issued by NWS North Platte, NE

Home | Current Version | Previous Version | Text Only | Print | Product List | Glossary On
Versions: 1 2 3 4 5 6 7 8 9 10 11 12 13 14 15 16 17 18 19 20 21 22 23 24 25 26 27 28 29 30 31 32 33 34 35 36 37 38 39 40 41 42 43 44 45 46 47 48 49 50
000
AXUS43 KLBF 310410
MISLBF


WESTERN AND NORTH CENTRAL NEBRASKA HOURLY WEATHER ROUNDUP
NATIONAL WEATHER SERVICE NORTH PLATTE NE
1100 PM CDT SUN AUG 30 2015

NOTE: "FAIR" INDICATES FEW OR NO CLOUDS BELOW 12,000 FEET WITH NO
SIGNIFICANT WEATHER AND/OR OBSTRUCTIONS TO VISIBILITY.

NOTE: STATIONS NOT REPORTING VARIABLES SUCH AS SKY/WEATHER OR
PRESSURE ARE PROVIDED BY THE NEBRASKA DEPARTMENT OF
ROADS...RAWS...AND APRS NETWORKS...AND ARE NOT UNDER
NATIONAL WEATHER SERVICE QUALITY CONTROL.

...OBSERVATIONS IN AND NEAR THE EASTERN PANHANDLE OF NEBRASKA...

CITY           SKY/WX    TMP DP  RH WIND       PRES   REMARKS
PINE RIDGE     PTCLDY    83  45  26 S15       29.81F
CHADRON        MOCLDY    78  47  33 CALM      29.81R
ALLIANCE       PTCLDY    77  47  34 S14       29.87R
SIDNEY         CLEAR     76  49  38 S13       29.95R
CRESCENT LAKE    N/A     75  45  34 S6G14       N/A
BIG SPRINGS      N/A     76  43  31 S16         N/A
$$

...OBSERVATIONS IN NORTH CENTRAL NEBRASKA...

CITY           SKY/WX    TMP DP  RH WIND       PRES   REMARKS
VALENTINE      CLEAR     76  58  53 S23G31    29.82R
THEDFORD       CLEAR     73  60  63 S17G24    29.89S
AINSWORTH      CLEAR     72  61  68 S16G24    29.85S
O`NEILL        PTCLDY    69  66  90 S16G22    29.89S
ORD            CLEAR     67  63  87 S8G17     29.91S
BROKEN BOW     CLEAR     69  62  78 S10G23    29.93S
SPRINGVIEW       N/A     74  63  69 S3          N/A
SARGENT          N/A     67  63  86 CALM        N/A
CHAMBERS         N/A     67  65  92 S3G12       N/A
EWING            N/A     68  63  83 S7G14       N/A
$$

...OBSERVATIONS IN SOUTHWEST NEBRASKA AND FAR NORTHEAST COLORADO...

CITY           SKY/WX    TMP DP  RH WIND       PRES   REMARKS
WRAY           FAIR      77  39  25 S17G28    29.94S
HOLYOKE        FAIR      73  43  33 S14       29.93S
IMPERIAL       CLEAR     74  38  27 S14       29.93R
OGALLALA       CLEAR     75  39  26 S14G21    29.89S
NORTH PLATTE   CLEAR     71  58  63 SE12      29.91S
MCCOOK         CLEAR     70  49  47 SE10      29.94R
LEXINGTON      CLEAR     68  63  82 SE14      29.94S
PAXTON           N/A     73  45  37 S15         N/A
BRADY            N/A     68  59  74 CALM        N/A
CALLAWAY         N/A     65  62  90 S14         N/A
$$

...OBSERVATIONS IN CENTRAL LINCOLN COUNTY AREA...

CITY           SKY/WX    TMP DP  RH WIND       PRES   REMARKS
N.P. AIRPORT   CLEAR     71  58  63 SE12      29.91S
N.P. DOWNTOWN    N/A     73  59  62 SE5G12      N/A
N.P. HILLCREST   N/A     71  59  66 SE10        N/A
$$

...SOME OBSERVATIONS FROM AROUND THE REGION...

CITY           SKY/WX    TMP DP  RH WIND       PRES   REMARKS
DENVER         MOCLDY    80  39  23 S15       30.00R
LARAMIE        CLOUDY    65  44  46 W9G23     30.18F
CHEYENNE       MOCLDY    72  47  40 NW5       30.09R
SCOTTSBLUFF    MOCLDY    77  51  40 CALM      29.87R
RAPID CITY     MOCLDY    70  59  68 W12       29.77S
PIERRE         CLEAR     76  56  49 SE14      29.70S
WINNER         FAIR      79  59  50 S25G32    29.76S
SIOUX FALLS    CLOUDY    67  64  90 S10       29.91S
OMAHA          PTCLDY    68  66  93 SE6       29.97S
GRAND ISLAND   CLEAR     68  64  87 S16       29.96S
KANSAS CITY    PTCLDY    74  69  85 SE7       29.98S
WICHITA        CLEAR     74  68  81 SE9       29.96S
HAYS           CLEAR     66  55  68 SE8       29.97S
LIBERAL        CLEAR     72  48  43 SE10      29.99R
GOODLAND       CLEAR     67  43  41 S12       29.98S
$$



USA.gov is the U.S. government's official web portal to all federal, state and local government web resources and services.